Time,TemperatureF,DewpointF,PressureIn,WindDirection,WindDirectionDegrees,WindSpeedMPH,WindSpeedGustMPH,Humidity,HourlyPrecipIn,Conditions,Clouds,dailyrainin,SoftwareType,DateUTC
2013-01-31 00:01:00,32.4,23.5,30.00,NNW,338,5.4,6.3,70,0.00,,,0.00,WSDL version 420,2013-01-31 07:01:00,
2013-01-31 00:06:00,32.5,23.9,30.00,NNW,338,4.0,6.0,70,0.00,,,0.00,WSDL version 420,2013-01-31 07:06:00,
2013-01-31 00:11:00,32.5,23.9,30.00,NNW,338,4.5,6.0,70,0.00,,,0.00,WSDL version 420,2013-01-31 07:11:00,
2013-01-31 00:16:00,32.4,23.6,30.00,NNW,338,3.1,6.0,70,0.00,,,0.00,WSDL version 420,2013-01-31 07:16:00,
2013-01-31 00:21:00,32.4,23.6,30.00,NNW,338,2.1,4.9,69,0.00,,,0.00,WSDL version 420,2013-01-31 07:21:00,
2013-01-31 00:26:00,32.4,23.3,30.00,NNW,338,2.5,3.4,69,0.00,,,0.00,WSDL version 420,2013-01-31 07:26:00,
2013-01-31 00:31:00,32.4,23.4,30.00,NNW,338,2.2,3.4,69,0.00,,,0.00,WSDL version 420,2013-01-31 07:31:00,
2013-01-31 00:41:00,32.7,23.7,30.00,NNW,343,2.2,3.1,69,0.00,,,0.00,WSDL version 420,2013-01-31 07:41:00,
2013-01-31 00:46:00,32.9,23.8,30.00,NW,315,1.1,2.7,69,0.00,,,0.00,WSDL version 420,2013-01-31 07:46:00,
2013-01-31 00:51:00,32.8,23.7,30.00,West,259,1.5,2.7,68,0.00,,,0.00,WSDL version 420,2013-01-31 07:51:00,
2013-01-31 00:56:00,32.6,23.2,30.00,North,349,1.6,2.5,67,0.00,,,0.00,WSDL version 420,2013-01-31 07:56:00,
2013-01-31 01:01:00,32.5,22.7,30.00,NNW,330,2.0,2.5,67,0.00,,,0.00,WSDL version 420,2013-01-31 08:01:00,
2013-01-31 01:06:00,32.4,22.9,30.03,NE,53,1.3,2.2,68,0.00,,,0.00,WSDL version 420,2013-01-31 08:06:00,
2013-01-31 01:11:00,32.4,23.0,30.03,NE,45,0.9,2.5,68,0.00,,,0.00,WSDL version 420,2013-01-31 08:11:00,
2013-01-31 01:16:00,32.2,22.9,30.03,NE,45,0.3,2.5,68,0.00,,,0.00,WSDL version 420,2013-01-31 08:16:00,
2013-01-31 01:21:00,32.2,22.8,30.03,NE,45,1.8,2.7,68,0.00,,,0.00,WSDL version 420,2013-01-31 08:21:00,
2013-01-31 01:26:00,32.2,23.0,30.03,ENE,68,3.8,3.8,69,0.00,,,0.00,WSDL version 420,2013-01-31 08:26:00,
2013-01-31 01:31:00,32.4,23.5,30.03,NE,39,1.6,3.4,69,0.00,,,0.00,WSDL version 420,2013-01-31 08:31:00,
2013-01-31 01:36:00,32.5,23.5,30.03,NNE,23,3.1,3.1,69,0.00,,,0.00,WSDL version 420,2013-01-31 08:36:00,
2013-01-31 01:41:00,32.4,23.3,30.03,NNE,23,1.5,3.4,69,0.00,,,0.00,WSDL version 420,2013-01-31 08:41:00,
2013-01-31 01:46:00,32.4,23.3,30.03,ENE,68,3.1,6.0,69,0.00,,,0.00,WSDL version 420,2013-01-31 08:46:00,
2013-01-31 01:51:00,32.5,23.4,30.03,North,5,2.5,6.0,69,0.00,,,0.00,WSDL version 420,2013-01-31 08:51:00,
2013-01-31 01:56:00,32.7,23.6,30.03,NNE,23,1.5,3.4,69,0.00,,,0.00,WSDL version 420,2013-01-31 08:56:00,
2013-01-31 02:01:00,32.7,23.7,30.03,North,360,0.0,2.5,69,0.00,,,0.00,WSDL version 420,2013-01-31 09:01:00,
2013-01-31 02:06:00,32.7,23.3,30.06,NW,315,0.0,2.5,68,0.00,,,0.00,WSDL version 420,2013-01-31 09:06:00,
2013-01-31 02:11:00,32.7,23.2,30.06,ENE,68,1.0,2.5,67,0.00,,,0.00,WSDL version 420,2013-01-31 09:11:00,
2013-01-31 02:16:00,32.5,22.8,30.06,ENE,68,1.6,2.5,67,0.00,,,0.00,WSDL version 420,2013-01-31 09:16:00,
2013-01-31 02:21:00,32.3,22.6,30.06,ENE,68,1.2,2.5,67,0.00,,,0.00,WSDL version 420,2013-01-31 09:21:00,
2013-01-31 02:26:00,32.2,22.4,30.06,ENE,68,0.7,2.0,66,0.00,,,0.00,WSDL version 420,2013-01-31 09:26:00,
2013-01-31 02:31:00,32.0,23.3,30.06,ENE,68,1.0,2.2,67,0.00,,,0.00,WSDL version 420,2013-01-31 09:31:00,
2013-01-31 02:36:00,31.9,23.0,30.06,North,360,2.6,3.6,66,0.00,,,0.00,WSDL version 420,2013-01-31 09:36:00,
2013-01-31 02:41:00,31.6,22.9,30.06,North,11,3.4,3.8,67,0.00,,,0.00,WSDL version 420,2013-01-31 09:41:00,
2013-01-31 02:46:00,31.6,23.1,30.06,NNE,15,3.0,3.8,67,0.00,,,0.00,WSDL version 420,2013-01-31 09:46:00,
2013-01-31 02:51:00,31.6,23.3,30.03,NNE,23,2.2,3.8,68,0.00,,,0.00,WSDL version 420,2013-01-31 09:51:00,
2013-01-31 02:56:00,31.5,23.2,30.03,ENE,68,1.9,2.9,68,0.00,,,0.00,WSDL version 420,2013-01-31 09:56:00,
2013-01-31 03:01:00,31.3,23.0,30.03,ENE,68,0.0,2.7,68,0.00,,,0.00,WSDL version 420,2013-01-31 10:01:00,
2013-01-31 03:06:00,31.2,22.9,30.03,ENE,68,0.0,0.0,68,0.00,,,0.00,WSDL version 420,2013-01-31 10:06:00,
2013-01-31 03:11:00,30.8,22.3,30.03,ENE,68,2.0,2.7,67,0.00,,,0.00,WSDL version 420,2013-01-31 10:11:00,
2013-01-31 03:16:00,30.5,22.0,30.03,ENE,68,0.0,2.7,68,0.00,,,0.00,WSDL version 420,2013-01-31 10:16:00,
2013-01-31 03:21:00,30.2,21.7,30.03,ENE,68,2.2,2.5,67,0.00,,,0.00,WSDL version 420,2013-01-31 10:21:00,
2013-01-31 03:26:00,29.9,21.6,30.03,ENE,68,1.3,2.5,69,0.00,,,0.00,WSDL version 420,2013-01-31 10:26:00,
2013-01-31 03:31:00,30.0,22.1,30.03,ENE,68,2.5,2.9,69,0.00,,,0.00,WSDL version 420,2013-01-31 10:31:00,
2013-01-31 03:36:00,30.0,22.1,30.03,ENE,68,0.4,2.9,69,0.00,,,0.00,WSDL version 420,2013-01-31 10:36:00,
2013-01-31 03:41:00,30.0,22.1,30.03,ENE,68,1.1,2.5,69,0.00,,,0.00,WSDL version 420,2013-01-31 10:41:00,
2013-01-31 03:46:00,30.0,22.1,30.03,ENE,68,2.1,2.5,69,0.00,,,0.00,WSDL version 420,2013-01-31 10:46:00,
2013-01-31 03:51:00,29.9,22.0,30.03,NNE,23,1.3,2.5,69,0.00,,,0.00,WSDL version 420,2013-01-31 10:51:00,
2013-01-31 03:56:00,29.8,21.9,30.03,NE,45,0.2,2.5,69,0.00,,,0.00,WSDL version 420,2013-01-31 10:56:00,
2013-01-31 04:01:00,29.8,21.9,30.03,NE,45,2.1,2.5,69,0.00,,,0.00,WSDL version 420,2013-01-31 11:01:00,
2013-01-31 04:06:00,29.8,21.8,30.03,ESE,113,2.5,3.1,68,0.00,,,0.00,WSDL version 420,2013-01-31 11:06:00,
2013-01-31 04:11:00,29.3,21.1,30.03,ESE,113,1.8,3.1,68,0.00,,,0.00,WSDL version 420,2013-01-31 11:11:00,
2013-01-31 04:16:00,29.5,21.6,30.03,East,90,1.6,2.5,70,0.00,,,0.00,WSDL version 420,2013-01-31 11:16:00,
2013-01-31 04:21:00,29.5,21.9,30.03,East,90,1.1,2.5,69,0.00,,,0.00,WSDL version 420,2013-01-31 11:21:00,
2013-01-31 04:26:00,29.0,20.9,30.03,East,90,1.3,2.7,68,0.00,,,0.00,WSDL version 420,2013-01-31 11:26:00,
2013-01-31 04:31:00,28.8,20.9,30.03,East,90,1.2,2.7,69,0.00,,,0.00,WSDL version 420,2013-01-31 11:31:00,
2013-01-31 04:36:00,29.0,21.4,30.03,East,90,0.7,1.6,70,0.00,,,0.00,WSDL version 420,2013-01-31 11:36:00,
2013-01-31 04:41:00,29.1,21.5,30.03,East,90,0.0,0.0,70,0.00,,,0.00,WSDL version 420,2013-01-31 11:41:00,
2013-01-31 04:46:00,29.2,21.6,30.03,East,90,0.0,0.0,70,0.00,,,0.00,WSDL version 420,2013-01-31 11:46:00,
2013-01-31 04:51:00,29.1,21.5,30.03,East,90,2.0,2.5,70,0.00,,,0.00,WSDL version 420,2013-01-31 11:51:00,
2013-01-31 04:56:00,29.1,21.5,30.03,East,90,1.5,2.5,70,0.00,,,0.00,WSDL version 420,2013-01-31 11:56:00,
2013-01-31 05:01:00,29.3,21.8,30.03,East,90,0.7,2.5,71,0.00,,,0.00,WSDL version 420,2013-01-31 12:01:00,
2013-01-31 05:06:00,29.3,21.9,30.03,East,90,1.5,2.5,70,0.00,,,0.00,WSDL version 420,2013-01-31 12:06:00,
2013-01-31 05:11:00,28.8,20.9,30.03,East,90,0.7,2.2,68,0.00,,,0.00,WSDL version 420,2013-01-31 12:11:00,
2013-01-31 05:16:00,28.6,20.6,30.03,East,90,1.2,1.6,69,0.00,,,0.00,WSDL version 420,2013-01-31 12:16:00,
2013-01-31 05:21:00,28.6,21.0,30.00,East,90,1.2,2.0,70,0.00,,,0.00,WSDL version 420,2013-01-31 12:21:00,
2013-01-31 05:26:00,28.6,21.1,30.00,East,90,0.5,2.2,71,0.00,,,0.00,WSDL version 420,2013-01-31 12:26:00,
2013-01-31 05:31:00,28.8,21.5,30.00,East,90,0.0,2.2,71,0.00,,,0.00,WSDL version 420,2013-01-31 12:31:00,
2013-01-31 05:36:00,28.9,21.7,30.00,East,90,0.0,0.0,71,0.00,,,0.00,WSDL version 420,2013-01-31 12:36:00,
2013-01-31 05:41:00,28.9,21.7,30.00,East,90,0.0,0.0,71,0.00,,,0.00,WSDL version 420,2013-01-31 12:41:00,
2013-01-31 05:46:00,29.2,22.0,30.00,East,90,0.0,0.0,72,0.00,,,0.00,WSDL version 420,2013-01-31 12:46:00,
2013-01-31 05:51:00,29.5,22.4,30.00,East,90,0.0,0.0,72,0.00,,,0.00,WSDL version 420,2013-01-31 12:51:00,
2013-01-31 05:56:00,29.5,22.5,30.00,East,90,0.0,0.0,72,0.00,,,0.00,WSDL version 420,2013-01-31 12:56:00,
2013-01-31 06:01:00,29.5,22.4,30.00,East,90,0.7,2.0,71,0.00,,,0.00,WSDL version 420,2013-01-31 13:01:00,
2013-01-31 06:06:00,29.5,22.2,30.00,East,90,0.0,2.0,71,0.00,,,0.00,WSDL version 420,2013-01-31 13:06:00,
2013-01-31 06:11:00,29.3,21.8,30.00,East,90,0.0,0.0,70,0.00,,,0.00,WSDL version 420,2013-01-31 13:11:00,
2013-01-31 06:16:00,29.1,21.5,30.00,East,90,0.0,0.0,70,0.00,,,0.00,WSDL version 420,2013-01-31 13:16:00,
2013-01-31 06:21:00,29.2,21.8,30.00,East,90,0.0,0.0,71,0.00,,,0.00,WSDL version 420,2013-01-31 13:21:00,
2013-01-31 06:31:00,29.5,22.5,30.00,East,90,0.0,0.0,72,0.00,,,0.00,WSDL version 420,2013-01-31 13:31:00,
2013-01-31 06:36:00,29.5,22.2,30.00,East,90,0.0,0.0,71,0.00,,,0.00,WSDL version 420,2013-01-31 13:36:00,
2013-01-31 06:41:00,29.3,22.0,30.00,East,90,0.0,0.0,71,0.00,,,0.00,WSDL version 420,2013-01-31 13:41:00,
2013-01-31 06:46:00,29.2,21.9,30.00,East,90,1.1,2.2,71,0.00,,,0.00,WSDL version 420,2013-01-31 13:46:00,
2013-01-31 06:51:00,29.1,21.8,30.00,East,90,0.0,2.2,71,0.00,,,0.00,WSDL version 420,2013-01-31 13:51:00,
2013-01-31 06:56:00,29.0,21.9,30.00,East,90,0.0,1.1,72,0.00,,,0.00,WSDL version 420,2013-01-31 13:56:00,
2013-01-31 07:01:00,28.9,21.9,30.00,East,90,1.6,2.7,72,0.00,,,0.00,WSDL version 420,2013-01-31 14:01:00,
2013-01-31 07:06:00,29.2,22.2,30.00,NNE,23,1.6,3.4,72,0.00,,,0.00,WSDL version 420,2013-01-31 14:06:00,
2013-01-31 07:11:00,29.2,22.5,30.00,NNE,23,1.5,3.4,73,0.00,,,0.00,WSDL version 420,2013-01-31 14:11:00,
2013-01-31 07:16:00,29.1,22.3,30.00,NNE,23,1.4,2.0,72,0.00,,,0.00,WSDL version 420,2013-01-31 14:16:00,
2013-01-31 07:21:00,28.9,22.0,30.00,ENE,68,1.6,2.5,73,0.00,,,0.00,WSDL version 420,2013-01-31 14:21:00,
2013-01-31 07:26:00,28.9,22.2,30.00,ENE,68,0.9,2.5,72,0.00,,,0.00,WSDL version 420,2013-01-31 14:26:00,
2013-01-31 07:31:00,28.6,21.6,30.00,ENE,68,1.4,2.2,72,0.00,,,0.00,WSDL version 420,2013-01-31 14:31:00,
2013-01-31 07:36:00,28.6,21.6,30.00,ENE,68,0.0,2.2,72,0.00,,,0.00,WSDL version 420,2013-01-31 14:36:00,
2013-01-31 07:41:00,28.5,21.6,30.00,ENE,68,0.4,2.2,73,0.00,,,0.00,WSDL version 420,2013-01-31 14:41:00,
2013-01-31 07:46:00,28.5,21.8,30.00,ENE,68,0.0,2.2,73,0.00,,,0.00,WSDL version 420,2013-01-31 14:46:00,
2013-01-31 07:51:00,28.5,21.8,30.00,ENE,68,0.0,0.0,73,0.00,,,0.00,WSDL version 420,2013-01-31 14:51:00,
2013-01-31 07:56:00,28.6,21.9,30.00,ENE,68,0.0,0.0,73,0.00,,,0.00,WSDL version 420,2013-01-31 14:56:00,
2013-01-31 08:06:00,29.4,22.9,30.00,ENE,68,0.0,2.0,74,0.00,,,0.00,WSDL version 420,2013-01-31 15:06:00,
2013-01-31 08:11:00,29.8,23.5,30.00,ENE,68,0.0,0.0,75,0.00,,,0.00,WSDL version 420,2013-01-31 15:11:00,
2013-01-31 08:16:00,30.4,24.2,30.00,ENE,68,0.0,0.0,75,0.00,,,0.00,WSDL version 420,2013-01-31 15:16:00,
2013-01-31 08:21:00,31.0,24.8,30.03,ENE,68,1.2,2.0,75,0.00,,,0.00,WSDL version 420,2013-01-31 15:21:00,
2013-01-31 08:26:00,31.5,25.3,30.03,ENE,68,1.5,2.2,75,0.00,,,0.00,WSDL version 420,2013-01-31 15:26:00,
2013-01-31 08:31:00,32.1,25.4,30.03,ENE,68,1.2,2.2,75,0.00,,,0.00,WSDL version 420,2013-01-31 15:31:00,
2013-01-31 08:36:00,32.5,25.4,30.03,ENE,68,1.3,2.0,74,0.00,,,0.00,WSDL version 420,2013-01-31 15:36:00,
2013-01-31 08:41:00,33.0,25.6,30.03,NNE,30,1.9,2.7,74,0.00,,,0.00,WSDL version 420,2013-01-31 15:41:00,
2013-01-31 08:46:00,33.5,26.1,30.03,NNE,23,2.6,3.1,74,0.00,,,0.00,WSDL version 420,2013-01-31 15:46:00,
2013-01-31 08:51:00,33.8,26.1,30.00,NNE,23,3.6,5.4,73,0.00,,,0.00,WSDL version 420,2013-01-31 15:51:00,
2013-01-31 08:56:00,34.2,26.3,30.00,NNE,23,2.4,5.4,72,0.00,,,0.00,WSDL version 420,2013-01-31 15:56:00,
2013-01-31 09:01:00,34.7,26.6,30.00,NNE,15,2.4,3.6,72,0.00,,,0.00,WSDL version 420,2013-01-31 16:01:00,
2013-01-31 09:06:00,35.0,26.6,30.03,North,-999,-999.0,-999.0,71,0.00,,,0.00,WSDL version 420,2013-01-31 16:06:00,
2013-01-31 09:11:00,35.3,26.6,30.03,North,-999,-999.0,-999.0,70,0.00,,,0.00,WSDL version 420,2013-01-31 16:11:00,
2013-01-31 09:16:00,35.6,26.5,30.03,North,349,3.2,4.3,69,0.00,,,0.00,WSDL version 420,2013-01-31 16:16:00,
2013-01-31 09:21:00,35.8,26.6,30.03,North,349,3.2,4.9,69,0.00,,,0.00,WSDL version 420,2013-01-31 16:21:00,
2013-01-31 09:31:00,36.4,26.9,30.03,NNW,338,2.7,4.3,68,0.00,,,0.00,WSDL version 420,2013-01-31 16:31:00,
2013-01-31 09:36:00,36.8,27.2,30.03,NNW,343,2.7,3.6,68,0.00,,,0.00,WSDL version 420,2013-01-31 16:36:00,
2013-01-31 09:46:00,37.4,27.2,30.03,NNW,345,3.4,4.9,66,0.00,,,0.00,WSDL version 420,2013-01-31 16:46:00,
2013-01-31 09:51:00,37.7,27.0,30.03,North,349,2.9,4.3,65,0.00,,,0.00,WSDL version 420,2013-01-31 16:51:00,
2013-01-31 09:56:00,38.0,27.3,30.03,NNE,23,3.1,3.8,65,0.00,,,0.00,WSDL version 420,2013-01-31 16:56:00,
2013-01-31 10:01:00,38.7,27.9,30.03,NNE,23,3.1,3.6,65,0.00,,,0.00,WSDL version 420,2013-01-31 17:01:00,
2013-01-31 10:06:00,39.1,28.0,30.03,North,360,3.6,3.6,64,0.00,,,0.00,WSDL version 420,2013-01-31 17:06:00,
2013-01-31 10:11:00,39.5,28.2,30.03,NNW,338,2.5,3.8,63,0.00,,,0.00,WSDL version 420,2013-01-31 17:11:00,
2013-01-31 10:16:00,40.0,28.2,30.03,NNW,338,2.9,4.3,62,0.00,,,0.00,WSDL version 420,2013-01-31 17:16:00,
2013-01-31 10:21:00,40.3,27.9,30.03,North,-999,-999.0,-999.0,61,0.00,,,0.00,WSDL version 420,2013-01-31 17:21:00,
2013-01-31 10:26:00,40.8,28.3,30.03,North,360,2.5,3.4,60,0.00,,,0.00,WSDL version 420,2013-01-31 17:26:00,
2013-01-31 10:31:00,41.5,28.5,30.03,North,360,2.2,2.9,59,0.00,,,0.00,WSDL version 420,2013-01-31 17:31:00,
2013-01-31 10:36:00,41.9,28.6,30.03,North,-999,-999.0,-999.0,59,0.00,,,0.00,WSDL version 420,2013-01-31 17:36:00,
2013-01-31 10:41:00,42.2,28.4,30.03,North,-999,-999.0,-999.0,57,0.00,,,0.00,WSDL version 420,2013-01-31 17:41:00,
2013-01-31 10:46:00,42.5,28.2,30.03,North,-999,-999.0,-999.0,57,0.00,,,0.00,WSDL version 420,2013-01-31 17:46:00,
2013-01-31 10:56:00,43.2,28.0,30.03,North,360,2.2,3.4,55,0.00,,,0.00,WSDL version 420,2013-01-31 17:56:00,
2013-01-31 11:01:00,43.6,28.3,30.03,NNW,338,3.1,3.4,55,0.00,,,0.00,WSDL version 420,2013-01-31 18:01:00,
2013-01-31 11:06:00,44.0,28.8,30.03,NNW,338,3.0,3.8,54,0.00,,,0.00,WSDL version 420,2013-01-31 18:06:00,
2013-01-31 11:11:00,44.2,28.6,30.03,North,-999,-999.0,-999.0,54,0.00,,,0.00,WSDL version 420,2013-01-31 18:11:00,
2013-01-31 11:16:00,44.7,29.1,30.03,ENE,68,2.5,3.8,54,0.00,,,0.00,WSDL version 420,2013-01-31 18:16:00,
2013-01-31 11:21:00,44.9,28.9,30.03,North,-999,-999.0,-999.0,53,0.00,,,0.00,WSDL version 420,2013-01-31 18:21:00,
2013-01-31 11:26:00,45.2,29.1,30.03,North,-999,-999.0,-999.0,53,0.00,,,0.00,WSDL version 420,2013-01-31 18:26:00,
2013-01-31 11:31:00,45.4,28.9,30.03,NNE,23,2.5,3.4,52,0.00,,,0.00,WSDL version 420,2013-01-31 18:31:00,
2013-01-31 11:41:00,46.2,29.1,30.03,ENE,68,1.3,2.9,51,0.00,,,0.00,WSDL version 420,2013-01-31 18:41:00,
2013-01-31 11:46:00,46.6,29.0,30.03,NNE,23,2.2,2.9,50,0.00,,,0.00,WSDL version 420,2013-01-31 18:46:00,
2013-01-31 11:51:00,46.9,29.3,30.03,North,349,2.1,2.9,50,0.00,,,0.00,WSDL version 420,2013-01-31 18:51:00,
2013-01-31 11:56:00,47.4,29.2,30.03,North,-999,-999.0,-999.0,49,0.00,,,0.00,WSDL version 420,2013-01-31 18:56:00,
2013-01-31 12:01:00,47.8,29.1,30.03,North,360,1.1,2.2,48,0.00,,,0.00,WSDL version 420,2013-01-31 19:01:00,
2013-01-31 12:06:00,48.4,29.4,30.03,North,-999,-999.0,-999.0,47,0.00,,,0.00,WSDL version 420,2013-01-31 19:06:00,
2013-01-31 12:11:00,49.0,30.0,30.03,SSW,208,2.2,2.5,47,0.00,,,0.00,WSDL version 420,2013-01-31 19:11:00,
2013-01-31 12:16:00,49.5,30.1,30.03,North,0,0.0,5.6,47,0.00,,,0.00,WSDL version 420,2013-01-31 19:16:00,
2013-01-31 12:21:00,49.6,30.2,30.06,North,-999,-999.0,-999.0,47,0.00,,,0.00,WSDL version 420,2013-01-31 19:21:00,
2013-01-31 12:26:00,50.0,30.0,30.06,WSW,248,2.2,4.0,44,0.00,,,0.00,WSDL version 420,2013-01-31 19:26:00,
2013-01-31 12:31:00,50.3,28.6,30.06,SSW,203,1.3,4.9,42,0.00,,,0.00,WSDL version 420,2013-01-31 19:31:00,
2013-01-31 12:36:00,51.1,29.3,30.06,WSW,240,4.6,6.0,43,0.00,,,0.00,WSDL version 420,2013-01-31 19:36:00,
2013-01-31 12:41:00,51.4,29.1,30.06,SW,214,2.2,6.0,42,0.00,,,0.00,WSDL version 420,2013-01-31 19:41:00,
2013-01-31 12:46:00,51.4,28.3,30.06,WSW,248,3.5,6.0,41,0.00,,,0.00,WSDL version 420,2013-01-31 19:46:00,
2013-01-31 12:51:00,51.4,28.0,30.06,NNE,23,1.3,6.5,40,0.00,,,0.00,WSDL version 420,2013-01-31 19:51:00,
2013-01-31 12:56:00,51.4,27.5,30.06,WSW,240,4.3,6.5,39,0.00,,,0.00,WSDL version 420,2013-01-31 19:56:00,
2013-01-31 13:01:00,51.7,28.0,30.06,SW,219,3.8,7.6,40,0.00,,,0.00,WSDL version 420,2013-01-31 20:01:00,
2013-01-31 13:06:00,52.0,27.8,30.06,SW,214,3.8,7.6,39,0.00,,,0.00,WSDL version 420,2013-01-31 20:06:00,
2013-01-31 13:11:00,52.0,27.5,30.06,North,0,0.0,5.6,38,0.00,,,0.00,WSDL version 420,2013-01-31 20:11:00,
2013-01-31 13:16:00,52.0,27.3,30.06,West,259,3.9,5.8,38,0.00,,,0.00,WSDL version 420,2013-01-31 20:16:00,
2013-01-31 13:21:00,51.8,27.0,30.06,SW,236,3.4,6.5,38,0.00,,,0.00,WSDL version 420,2013-01-31 20:21:00,
2013-01-31 13:26:00,52.0,26.9,30.06,SE,135,1.7,6.5,37,0.00,,,0.00,WSDL version 420,2013-01-31 20:26:00,
2013-01-31 13:31:00,52.2,26.9,30.06,WSW,248,4.1,4.7,37,0.00,,,0.00,WSDL version 420,2013-01-31 20:31:00,
2013-01-31 13:36:00,52.3,26.9,30.03,SSW,203,2.8,4.7,37,0.00,,,0.00,WSDL version 420,2013-01-31 20:36:00,
2013-01-31 13:41:00,52.4,26.9,30.03,West,270,1.1,4.7,37,0.00,,,0.00,WSDL version 420,2013-01-31 20:41:00,
2013-01-31 13:46:00,52.5,26.6,30.03,NNW,338,2.2,4.7,36,0.00,,,0.00,WSDL version 420,2013-01-31 20:46:00,
2013-01-31 13:51:00,52.5,26.3,30.03,East,90,2.2,3.1,36,0.00,,,0.00,WSDL version 420,2013-01-31 20:51:00,
2013-01-31 13:56:00,52.4,26.1,30.03,SSE,158,4.0,4.0,36,0.00,,,0.00,WSDL version 420,2013-01-31 20:56:00,
2013-01-31 14:01:00,52.5,26.2,30.03,NNW,338,3.1,3.6,36,0.00,,,0.00,WSDL version 420,2013-01-31 21:01:00,
2013-01-31 14:06:00,52.5,25.3,30.03,NW,315,3.4,3.8,33,0.00,,,0.00,WSDL version 420,2013-01-31 21:06:00,
2013-01-31 14:11:00,52.4,24.2,30.03,North,-999,-999.0,-999.0,33,0.00,,,0.00,WSDL version 420,2013-01-31 21:11:00,
2013-01-31 14:16:00,52.3,24.2,30.03,North,-999,-999.0,-999.0,33,0.00,,,0.00,WSDL version 420,2013-01-31 21:16:00,
2013-01-31 14:21:00,52.3,24.1,30.03,North,-999,-999.0,-999.0,32,0.00,,,0.00,WSDL version 420,2013-01-31 21:21:00,
2013-01-31 14:26:00,52.5,23.7,30.03,NNE,23,4.1,5.6,32,0.00,,,0.00,WSDL version 420,2013-01-31 21:26:00,
2013-01-31 14:31:00,52.7,23.5,30.03,NNW,338,4.5,5.6,31,0.00,,,0.00,WSDL version 420,2013-01-31 21:31:00,
2013-01-31 14:36:00,52.8,23.0,30.03,North,-999,-999.0,-999.0,31,0.00,,,0.00,WSDL version 420,2013-01-31 21:36:00,
2013-01-31 14:41:00,52.9,23.8,30.03,North,-999,-999.0,-999.0,32,0.00,,,0.00,WSDL version 420,2013-01-31 21:41:00,
2013-01-31 14:46:00,53.0,24.4,30.03,NNW,338,2.2,4.0,33,0.00,,,0.00,WSDL version 420,2013-01-31 21:46:00,
2013-01-31 14:51:00,53.2,25.1,30.03,North,0,0.0,4.0,33,0.00,,,0.00,WSDL version 420,2013-01-31 21:51:00,
2013-01-31 14:56:00,53.5,25.3,30.03,North,0,0.0,8.5,33,0.00,,,0.00,WSDL version 420,2013-01-31 21:56:00,
2013-01-31 15:01:00,53.7,24.9,30.03,NNW,338,4.5,8.5,32,0.00,,,0.00,WSDL version 420,2013-01-31 22:01:00,
2013-01-31 15:06:00,53.9,24.9,30.03,NNW,338,4.3,5.6,32,0.00,,,0.00,WSDL version 420,2013-01-31 22:06:00,
2013-01-31 15:11:00,54.0,24.2,30.03,NNW,338,5.1,6.3,31,0.00,,,0.00,WSDL version 420,2013-01-31 22:11:00,
2013-01-31 15:16:00,54.0,24.1,30.03,North,11,3.2,6.3,31,0.00,,,0.00,WSDL version 420,2013-01-31 22:16:00,
2013-01-31 15:21:00,54.1,23.6,30.03,North,360,3.5,7.4,29,0.00,,,0.00,WSDL version 420,2013-01-31 22:21:00,
2013-01-31 15:26:00,54.1,22.0,30.03,NNW,338,4.7,7.4,28,0.00,,,0.00,WSDL version 420,2013-01-31 22:26:00,
2013-01-31 15:31:00,54.1,21.8,30.03,NW,326,3.8,6.3,28,0.00,,,0.00,WSDL version 420,2013-01-31 22:31:00,
2013-01-31 15:36:00,54.1,20.9,30.03,North,360,5.6,6.3,27,0.00,,,0.00,WSDL version 420,2013-01-31 22:36:00,
2013-01-31 15:41:00,54.1,20.9,30.03,North,-999,-999.0,-999.0,27,0.00,,,0.00,WSDL version 420,2013-01-31 22:41:00,
2013-01-31 15:46:00,54.0,19.9,30.03,NNW,330,5.9,6.5,26,0.00,,,0.00,WSDL version 420,2013-01-31 22:46:00,
2013-01-31 15:51:00,54.0,20.0,30.03,North,-999,-999.0,-999.0,26,0.00,,,0.00,WSDL version 420,2013-01-31 22:51:00,
2013-01-31 15:56:00,54.0,20.0,30.03,ESE,113,3.0,7.6,26,0.00,,,0.00,WSDL version 420,2013-01-31 22:56:00,
2013-01-31 16:01:00,54.0,20.0,30.03,NE,45,3.8,3.8,26,0.00,,,0.00,WSDL version 420,2013-01-31 23:01:00,
2013-01-31 16:06:00,54.0,19.9,30.03,NNE,23,4.0,5.6,26,0.00,,,0.00,WSDL version 420,2013-01-31 23:06:00,
2013-01-31 16:11:00,54.0,19.9,30.03,NNW,338,2.9,5.6,26,0.00,,,0.00,WSDL version 420,2013-01-31 23:11:00,
2013-01-31 16:16:00,53.9,19.8,30.03,NNW,338,4.9,5.4,26,0.00,,,0.00,WSDL version 420,2013-01-31 23:16:00,
2013-01-31 16:21:00,53.8,19.7,30.00,NNW,338,4.0,5.6,26,0.00,,,0.00,WSDL version 420,2013-01-31 23:21:00,
2013-01-31 16:26:00,53.7,19.7,30.00,NNW,338,3.8,5.6,26,0.00,,,0.00,WSDL version 420,2013-01-31 23:26:00,
2013-01-31 16:31:00,53.6,19.6,30.00,NW,315,2.5,4.9,26,0.00,,,0.00,WSDL version 420,2013-01-31 23:31:00,
2013-01-31 16:36:00,53.5,19.5,30.03,North,-999,-999.0,-999.0,26,0.00,,,0.00,WSDL version 420,2013-01-31 23:36:00,
2013-01-31 16:41:00,53.3,19.7,30.03,North,-999,-999.0,-999.0,26,0.00,,,0.00,WSDL version 420,2013-01-31 23:41:00,
2013-01-31 16:46:00,53.2,19.4,30.03,NNW,338,3.1,5.4,26,0.00,,,0.00,WSDL version 420,2013-01-31 23:46:00,
2013-01-31 16:51:00,53.2,19.2,30.00,NNW,338,4.7,6.3,26,0.00,,,0.00,WSDL version 420,2013-01-31 23:51:00,
2013-01-31 16:56:00,53.1,19.3,30.00,NNW,338,3.8,6.3,27,0.00,,,0.00,WSDL version 420,2013-01-31 23:56:00,
2013-01-31 17:01:00,52.9,19.5,30.00,NNE,23,2.7,5.4,27,0.00,,,0.00,WSDL version 420,2013-02-01 00:01:00,
2013-01-31 17:06:00,52.7,19.7,30.00,NNW,338,2.7,3.4,27,0.00,,,0.00,WSDL version 420,2013-02-01 00:06:00,
2013-01-31 17:11:00,52.5,19.5,30.00,North,-999,-999.0,-999.0,27,0.00,,,0.00,WSDL version 420,2013-02-01 00:11:00,
2013-01-31 17:16:00,52.3,19.3,30.00,North,-999,-999.0,-999.0,27,0.00,,,0.00,WSDL version 420,2013-02-01 00:16:00,
2013-01-31 17:21:00,52.0,19.0,30.00,North,-999,-999.0,-999.0,27,0.00,,,0.00,WSDL version 420,2013-02-01 00:21:00,
2013-01-31 17:26:00,51.6,19.6,30.00,North,-999,-999.0,-999.0,28,0.00,,,0.00,WSDL version 420,2013-02-01 00:26:00,
2013-01-31 17:31:00,51.3,19.9,30.00,North,360,1.3,3.1,29,0.00,,,0.00,WSDL version 420,2013-02-01 00:31:00,
2013-01-31 17:36:00,50.9,19.8,30.00,North,360,1.6,3.1,29,0.00,,,0.00,WSDL version 420,2013-02-01 00:36:00,
2013-01-31 17:41:00,50.4,19.5,30.00,NNW,338,2.2,3.1,30,0.00,,,0.00,WSDL version 420,2013-02-01 00:41:00,
2013-01-31 17:46:00,50.0,19.8,30.00,North,-999,-999.0,-999.0,30,0.00,,,0.00,WSDL version 420,2013-02-01 00:46:00,
2013-01-31 17:51:00,49.6,19.5,30.00,North,360,2.9,3.1,31,0.00,,,0.00,WSDL version 420,2013-02-01 00:51:00,
2013-01-31 17:56:00,49.1,19.8,30.00,North,360,2.5,2.7,31,0.00,,,0.00,WSDL version 420,2013-02-01 00:56:00,
2013-01-31 18:01:00,48.8,19.5,30.00,North,8,2.8,2.9,31,0.00,,,0.00,WSDL version 420,2013-02-01 01:01:00,
2013-01-31 18:06:00,48.5,19.3,30.00,NNE,23,2.7,2.9,31,0.00,,,0.00,WSDL version 420,2013-02-01 01:06:00,
2013-01-31 18:11:00,48.2,19.1,30.00,NNE,23,1.0,2.7,32,0.00,,,0.00,WSDL version 420,2013-02-01 01:11:00,
2013-01-31 18:16:00,47.8,19.4,30.00,NNE,23,0.0,2.0,32,0.00,,,0.00,WSDL version 420,2013-02-01 01:16:00,
2013-01-31 18:21:00,47.4,19.6,30.00,North,0,0.0,1.3,33,0.00,,,0.00,WSDL version 420,2013-02-01 01:21:00,
2013-01-31 18:26:00,47.2,19.8,30.00,NE,45,2.1,2.7,34,0.00,,,0.00,WSDL version 420,2013-02-01 01:26:00,
2013-01-31 18:31:00,46.6,20.5,30.00,NE,45,2.9,2.9,36,0.00,,,0.00,WSDL version 420,2013-02-01 01:31:00,
2013-01-31 18:36:00,46.1,21.2,30.00,ENE,68,2.0,3.1,37,0.00,,,0.00,WSDL version 420,2013-02-01 01:36:00,
2013-01-31 18:41:00,45.7,20.9,30.00,ENE,68,2.4,3.4,37,0.00,,,0.00,WSDL version 420,2013-02-01 01:41:00,
2013-01-31 18:46:00,45.0,20.3,30.00,ENE,68,3.0,3.6,37,0.00,,,0.00,WSDL version 420,2013-02-01 01:46:00,
2013-01-31 18:51:00,44.1,20.1,30.00,ENE,68,0.3,3.6,38,0.00,,,0.00,WSDL version 420,2013-02-01 01:51:00,
2013-01-31 18:56:00,43.6,19.7,30.00,ENE,68,2.9,3.4,38,0.00,,,0.00,WSDL version 420,2013-02-01 01:56:00,
2013-01-31 19:01:00,43.3,19.4,30.00,ENE,68,3.1,4.0,38,0.00,,,0.00,WSDL version 420,2013-02-01 02:01:00,
2013-01-31 19:06:00,42.9,19.2,30.00,ENE,68,3.4,4.0,39,0.00,,,0.00,WSDL version 420,2013-02-01 02:06:00,
2013-01-31 19:11:00,42.7,19.6,30.00,ENE,68,3.1,3.8,40,0.00,,,0.00,WSDL version 420,2013-02-01 02:11:00,
2013-01-31 19:16:00,42.3,19.7,30.00,ENE,68,3.4,3.8,40,0.00,,,0.00,WSDL version 420,2013-02-01 02:16:00,
2013-01-31 19:21:00,42.1,19.6,30.00,ENE,68,2.7,3.8,41,0.00,,,0.00,WSDL version 420,2013-02-01 02:21:00,
2013-01-31 19:26:00,41.7,19.5,30.00,East,83,2.7,4.0,40,0.00,,,0.00,WSDL version 420,2013-02-01 02:26:00,
2013-01-31 19:31:00,41.5,19.0,30.00,ENE,68,4.0,4.3,40,0.00,,,0.00,WSDL version 420,2013-02-01 02:31:00,
2013-01-31 19:36:00,41.3,19.3,30.00,ENE,68,3.6,4.7,41,0.00,,,0.00,WSDL version 420,2013-02-01 02:36:00,
2013-01-31 19:41:00,41.0,19.1,30.00,ENE,68,3.4,4.7,41,0.00,,,0.00,WSDL version 420,2013-02-01 02:41:00,
2013-01-31 19:46:00,40.7,18.8,30.00,ENE,68,3.6,4.7,41,0.00,,,0.00,WSDL version 420,2013-02-01 02:46:00,
2013-01-31 19:51:00,40.6,18.8,30.00,ENE,68,3.5,4.9,41,0.00,,,0.00,WSDL version 420,2013-02-01 02:51:00,
2013-01-31 19:56:00,40.9,18.8,30.00,East,79,3.0,4.9,40,0.00,,,0.00,WSDL version 420,2013-02-01 02:56:00,
2013-01-31 20:01:00,41.1,18.7,30.00,ENE,68,3.4,4.7,40,0.00,,,0.00,WSDL version 420,2013-02-01 03:01:00,
2013-01-31 20:06:00,41.2,18.7,30.03,East,79,4.4,5.6,40,0.00,,,0.00,WSDL version 420,2013-02-01 03:06:00,
2013-01-31 20:11:00,41.1,18.6,30.03,ENE,73,3.8,5.8,40,0.00,,,0.00,WSDL version 420,2013-02-01 03:11:00,
2013-01-31 20:16:00,41.1,18.6,30.03,ENE,73,3.7,5.8,40,0.00,,,0.00,WSDL version 420,2013-02-01 03:16:00,
2013-01-31 20:21:00,40.9,18.7,30.03,ENE,73,2.9,5.4,41,0.00,,,0.00,WSDL version 420,2013-02-01 03:21:00,
2013-01-31 20:26:00,40.6,18.8,30.03,SSE,158,3.1,5.4,41,0.00,,,0.00,WSDL version 420,2013-02-01 03:26:00,
2013-01-31 20:31:00,40.2,18.7,30.03,East,90,3.9,6.3,42,0.00,,,0.00,WSDL version 420,2013-02-01 03:31:00,
2013-01-31 20:36:00,40.2,18.9,30.03,East,83,3.7,6.3,42,0.00,,,0.00,WSDL version 420,2013-02-01 03:36:00,
2013-01-31 20:41:00,40.4,19.1,30.03,ENE,75,4.0,5.6,42,0.00,,,0.00,WSDL version 420,2013-02-01 03:41:00,
2013-01-31 20:46:00,40.6,19.3,30.03,ENE,63,4.0,4.9,42,0.00,,,0.00,WSDL version 420,2013-02-01 03:46:00,
2013-01-31 20:51:00,40.7,19.4,30.03,ENE,74,3.8,5.4,42,0.00,,,0.00,WSDL version 420,2013-02-01 03:51:00,
2013-01-31 20:56:00,40.9,19.3,30.03,East,83,3.5,5.4,41,0.00,,,0.00,WSDL version 420,2013-02-01 03:56:00,
2013-01-31 21:01:00,40.8,19.5,30.03,ENE,68,4.0,6.0,42,0.00,,,0.00,WSDL version 420,2013-02-01 04:01:00,
2013-01-31 21:06:00,40.7,19.4,30.03,ENE,68,3.1,6.0,42,0.00,,,0.00,WSDL version 420,2013-02-01 04:06:00,
2013-01-31 21:11:00,40.3,19.1,30.03,ENE,68,3.6,4.0,42,0.00,,,0.00,WSDL version 420,2013-02-01 04:11:00,
2013-01-31 21:16:00,39.9,18.9,30.03,ENE,68,2.7,4.3,43,0.00,,,0.00,WSDL version 420,2013-02-01 04:16:00,
2013-01-31 21:21:00,39.5,18.9,30.03,ENE,68,2.5,4.3,43,0.00,,,0.00,WSDL version 420,2013-02-01 04:21:00,
2013-01-31 21:26:00,39.3,19.2,30.03,ENE,68,2.0,3.4,44,0.00,,,0.00,WSDL version 420,2013-02-01 04:26:00,
2013-01-31 21:31:00,39.2,19.1,30.03,ENE,68,2.8,4.0,44,0.00,,,0.00,WSDL version 420,2013-02-01 04:31:00,
2013-01-31 21:36:00,39.4,19.3,30.03,ENE,68,3.4,4.0,44,0.00,,,0.00,WSDL version 420,2013-02-01 04:36:00,
2013-01-31 21:41:00,39.4,18.9,30.03,ENE,68,3.7,4.3,43,0.00,,,0.00,WSDL version 420,2013-02-01 04:41:00,
2013-01-31 21:46:00,39.4,18.8,30.03,ENE,68,3.9,4.3,43,0.00,,,0.00,WSDL version 420,2013-02-01 04:46:00,
2013-01-31 21:51:00,39.4,18.9,30.03,ENE,68,4.7,5.4,44,0.00,,,0.00,WSDL version 420,2013-02-01 04:51:00,
2013-01-31 21:56:00,39.2,19.1,30.03,ENE,68,3.2,5.4,44,0.00,,,0.00,WSDL version 420,2013-02-01 04:56:00,
2013-01-31 22:01:00,39.0,19.5,30.03,ENE,77,3.3,4.7,45,0.00,,,0.00,WSDL version 420,2013-02-01 05:01:00,
2013-01-31 22:06:00,38.7,19.5,30.03,ENE,68,4.3,4.9,46,0.00,,,0.00,WSDL version 420,2013-02-01 05:06:00,
2013-01-31 22:11:00,38.4,19.5,30.03,ENE,68,3.3,4.9,47,0.00,,,0.00,WSDL version 420,2013-02-01 05:11:00,
2013-01-31 22:16:00,38.0,19.5,30.03,ENE,68,4.5,4.7,47,0.00,,,0.00,WSDL version 420,2013-02-01 05:16:00,
2013-01-31 22:21:00,37.8,19.3,30.00,ENE,68,4.4,5.6,47,0.00,,,0.00,WSDL version 420,2013-02-01 05:21:00,
2013-01-31 22:26:00,37.6,19.2,30.00,ENE,68,3.3,5.6,47,0.00,,,0.00,WSDL version 420,2013-02-01 05:26:00,
2013-01-31 22:31:00,37.7,19.5,30.00,ENE,68,3.0,5.6,48,0.00,,,0.00,WSDL version 420,2013-02-01 05:31:00,
2013-01-31 22:36:00,37.5,19.6,30.03,ENE,73,4.5,4.5,48,0.00,,,0.00,WSDL version 420,2013-02-01 05:36:00,
2013-01-31 22:41:00,37.3,19.7,30.03,ENE,68,3.4,4.5,49,0.00,,,0.00,WSDL version 420,2013-02-01 05:41:00,
2013-01-31 22:46:00,37.2,20.0,30.03,ENE,75,2.8,4.3,50,0.00,,,0.00,WSDL version 420,2013-02-01 05:46:00,
2013-01-31 22:51:00,37.0,20.1,30.03,ENE,68,2.6,5.4,50,0.00,,,0.00,WSDL version 420,2013-02-01 05:51:00,
2013-01-31 22:56:00,36.9,20.0,30.03,ENE,68,3.3,5.4,50,0.00,,,0.00,WSDL version 420,2013-02-01 05:56:00,
2013-01-31 23:01:00,36.9,20.0,30.03,ENE,68,3.4,4.3,50,0.00,,,0.00,WSDL version 420,2013-02-01 06:01:00,
2013-01-31 23:06:00,36.9,20.0,30.00,ENE,68,3.7,4.3,50,0.00,,,0.00,WSDL version 420,2013-02-01 06:06:00,
2013-01-31 23:11:00,36.9,20.1,30.00,ENE,68,2.4,4.3,50,0.00,,,0.00,WSDL version 420,2013-02-01 06:11:00,
2013-01-31 23:16:00,36.8,19.9,30.00,ENE,68,2.3,3.4,50,0.00,,,0.00,WSDL version 420,2013-02-01 06:16:00,
2013-01-31 23:21:00,36.5,20.0,30.03,ENE,68,2.5,3.4,51,0.00,,,0.00,WSDL version 420,2013-02-01 06:21:00,
2013-01-31 23:26:00,36.3,19.9,30.03,ENE,68,3.2,3.8,51,0.00,,,0.00,WSDL version 420,2013-02-01 06:26:00,
2013-01-31 23:31:00,36.4,20.0,30.03,SE,129,3.1,3.8,51,0.00,,,0.00,WSDL version 420,2013-02-01 06:31:00,
2013-01-31 23:36:00,36.0,20.1,30.00,ENE,68,3.1,3.8,52,0.00,,,0.00,WSDL version 420,2013-02-01 06:36:00,
2013-01-31 23:41:00,36.0,20.1,30.00,ENE,68,3.9,5.4,52,0.00,,,0.00,WSDL version 420,2013-02-01 06:41:00,
2013-01-31 23:46:00,36.1,20.2,30.00,ENE,68,3.4,5.4,52,0.00,,,0.00,WSDL version 420,2013-02-01 06:46:00,
2013-01-31 23:51:00,36.3,20.4,30.03,ENE,68,4.0,4.5,52,0.00,,,0.00,WSDL version 420,2013-02-01 06:51:00,
2013-01-31 23:56:00,36.3,20.4,30.03,NE,45,0.6,4.5,52,0.00,,,0.00,WSDL version 420,2013-02-01 06:56:00,